USA 271

Last updated on Sat Aug 24 2024 00:02:41 GMT+0000 (Coordinated Universal Time)

1 41745U 16052B 24235.34150324 -.00000044 00000+0 00000+0 0 9990 2 41745 2.4590 85.6907 0006990 250.1762 286.4711 1.00274226 749
UTC large
Height (km)
Speed (km/s)
/
Latitude / Longitude
Inclination (degrees)
Orbital Period (minutes)
Azimuth
Elevation
Range (km)
Doppler Factor

Next 0 passes for location: London (51.5072 / 0.1276)

Sorry there are no passes over London.